Home   Weather   Boké   Past weeks

Flag for Guinea Past Weather in Boké, Guinea — Yesterday and Last 2 Weeks

Now
82 °F

Partly sunny.


Feels Like: 91 °F
Forecast: N/A
Wind: 7 mph from Northwest

Location: Conakry / Gbessia

Current Time: Sep 29, 2016 at 6:49:25 PM

Latest Report: Sep 29, 2016 at 6:00 PM


Visibility: N/A

Pressure: 29.83 "Hg

Humidity: 84%

Dew Point: 77 °F

Location of BokéLocation

Past Weather in Boké — Graph

°F

Boké Temperature Yesterday

Maximum temperature yesterday: 84 °F (at 2:00 PM)
Minimum temperature yesterday: 75 °F (at 1:00 AM)
Average temperature yesterday: 79 °F

High & Low Weather Summary for the Past Weeks

 TemperatureHumidityPressure
High88 °F (Sep 15, 1:00 PM)100% (Sep 15, 2:00 AM)30.09 "Hg (Sep 15, 2:00 AM)
Low72 °F (Sep 19, 5:00 AM)62% (Sep 15, 11:00 AM)29.77 "Hg (Sep 26, 4:00 PM)
Average80 °F89%29.90 "Hg
* Reported Sep 14 5:00 PM — Sep 29 5:00 PM, Boké, Weather by CustomWeather, © 2016

Note: Actual official high and low records may vary slightly from our data, if they occured in-between our weather recording intervals... More about our weather records

Advertising

Boké Weather History for the Previous 24 Hours

Scroll right to see more
 ConditionsComfort  
Time TempWeatherWind HumidityBarometerVisibility
5:00 PM
Thu, Sep 29
82 °FPartly sunny.7 mph84%29.80 "HgN/A
4:00 PM82 °FPartly sunny.9 mph84%29.80 "HgN/A
3:00 PM81 °FPartly sunny.9 mph89%29.83 "HgN/A
2:00 PM81 °FPartly sunny.9 mph89%29.86 "HgN/A
1:00 PM81 °FPartly sunny.7 mph89%29.89 "HgN/A
12:00 PM79 °FPartly sunny.7 mph100%29.92 "HgN/A
11:00 AM81 °FPartly sunny.5 mph89%29.92 "HgN/A
9:00 AM79 °FPartly sunny.5 mph94%29.92 "HgN/A
8:00 AM77 °FBroken clouds.5 mph100%29.92 "HgN/A
7:00 AM77 °FLight rain. Broken clouds.5 mph94%29.89 "Hg5 mi
6:00 AM77 °FLight rain. Partly cloudy.9 mph100%29.86 "Hg3 mi
5:00 AM77 °FLight rain. Partly cloudy.5 mph100%29.89 "Hg3 mi
4:00 AM77 °FThunderstorms. Partly cloudy.2 mph100%29.89 "Hg3 mi
3:00 AM77 °FThunderstorms. Partly cloudy.7 mph94%29.89 "Hg3 mi
2:00 AM77 °FThunderstorms. Partly cloudy.7 mph94%29.92 "Hg5 mi
1:00 AM79 °FLight rain. Partly cloudy.2 mph89%29.92 "Hg5 mi
12:00 AM79 °FPartly cloudy.5 mph89%29.95 "HgN/A
11:00 PM
Wed, Sep 28
79 °FPartly cloudy.7 mph89%29.95 "HgN/A
10:00 PM79 °FPartly cloudy.5 mph89%29.95 "HgN/A
9:00 PM79 °FPartly cloudy.5 mph89%29.92 "HgN/A
8:00 PM81 °FPassing clouds.5 mph84%29.89 "HgN/A
7:00 PM81 °FPartly cloudy.7 mph84%29.89 "HgN/A
6:00 PM82 °FBroken clouds.9 mph84%29.86 "HgN/A
Weather by CustomWeather, © 2016

See weather overviewHow to use our weather pages